STARLINK-32139, 61510

Orbit data source: Space-Track

STARLINK-32139, 61510 is a payload satellite owned by SpaceX/Seattle (US) in LEO that was launched on Tue, 15 Oct 2024 UTC via an FALCON 9 launch vehicle from the Air Force Eastern Test Range (AFETR). Payload-class satellites include a variety of spacecraft equipped with specific instruments for various scientific and technological missions. These include communications satellites like Starlink; space stations such as the ISS; scientific satellites like the Hubble; Earth observation satellites from companies like Planet Labs, Umbra, and HawkEye 360; GPS; miniature CubeSats for education and research; and military/defense satellites.

Loading next visibility...
Identifier
61510, 2024-183B
Orbit
LEO
Country
Flag of USUS
Related business
Manufacturer
SpaceX/Seattle
Mission
Operational Commercial Communications
Bus & Motor
STARLINK V2M, Unknown motor
Mass
730 kg wet, ~700 kg dry
Launch date (UTC)
2024-10-15 (1 year ago)
Launch vehicle
FALCON 9
Launch site
Air Force Eastern Test Range (AFETR)
Object type
Payload
Rocket body
Debris
Shape & HBR
Box + 2 Pan, 17.7 m
Radar Cross Section
33.884 m², Large (>1 m²)

Expand to show TLE details & history
Last TLE update: 13 hours ago

TLE from 13 hours ago
0 STARLINK-32139
1 61510U 24183B   25346.83392067 -.00000591  00000-0 -78442-5 0  9996
2 61510  53.1598 185.9472 0000847  89.6117 270.4981 15.30186119 66359
Epoch: 2025-12-12T20:00Z
TLE epoch observation values (Epoch: 2025-12-12T20:00:50.745Z)
Latitude
-0.00003°
Longitude
163.96588°
Altitude
476.151 km
Speed
7.629 km/s
True Right ascension
12h 23m 47s
True Declination
0° 00' 00"
Sunlit
Object was in daylight at epoch
Visualization orbit readout
Latitude
Unknown
Longitude
Unknown
Altitude
Unknown
Speed
Unknown
Apparent Right ascension
Unknown
Apparent Declination
Unknown
Sunlit
N/A
Visualization observer readout
Local Sidereal Time
07:30:37
Azimuth
Unknown
Elevation
Unknown
Doppler factor
Unknown
Orbital elements
Apogee altitude
476.093 km
Perigee altitude
474.932 km
Semi-major axis
6,853.65 km
Eccentricity
0.00008
Inclination
53.1598°
RAAN
185.9472°
Arg. of periapsis
89.6117°
True anomaly
270.48839°
Mean anomaly
270.4981°
Eccentric anomaly
270.49325°
Mean motion
3.82525 °/min
Orbital period
94.11 mins
BSTAR
-0.0000078442
Loading maneuver chart data...
Computing Atmospheric mass density...
Loading historical data...
Loading historical data...
Loading historical data...
Loading historical data...
Loading historical data...
Loading historical data...
Loading historical data...

Documentation

Showing up to 5 results
|